Tracking 28096 objects as of 29-Sep-2023
HD Live streaming from Space Station
objects crossing your sky now

STARLINK-3713

Track STARLINK-3713 now!
10-day predictions
STARLINK-3713 is classified as:


NORAD ID: 52091
Int'l Code: 2022-029D
Perigee: 545.9 km
Apogee: 547.8 km
Inclination: 53.2 °
Period: 95.4 minutes
Semi major axis: 6917 km
RCS: Unknown
Launch date: March 19, 2022
Source: United States (US)
Launch site: AIR FORCE EASTERN TEST RANGE (AFETR)
Your satellite tracking list
Your tracking list is empty




NASA's NSSDC Master Catalog

Two Line Element Set (TLE):
1 52091U 22029D   23271.90433001  .00009246  00000-0  59804-3 0  9997
2 52091  53.2148 136.9886 0001423  93.1670 266.9485 15.08854410 85873
Source of the keplerian elements: AFSPC